DateTimeUTC,F1_A11,F1_S11,BsB_S11,BsG_S11,BsR_S11,BbsB_S11,BbsG_S11,BbsR_S11,BaB_A11,BaG_A11,BaR_A11,Tu_S11,T_S11,Uu_S11,U_S11,P_S11,T1_A11
2021-06-22T23:00:00Z,00040200,20000000,,,,,,,0000.14,-000.06,0000.60,18.5,25.4,03.7,02.4,0675.1,31.1
2021-06-22T23:01:00Z,00040200,20000000,,,,,,,0000.10,0000.11,-000.50,18.5,25.4,03.7,02.4,0675.1,31.1
2021-06-22T23:02:00Z,00040200,20000000,,,,,,,-000.14,-000.12,-000.08,18.5,25.4,03.7,02.4,0675.1,31.1
2021-06-22T23:03:00Z,00040200,60000000,,,,,,,0000.25,0000.25,0000.19,18.5,25.4,03.7,02.4,0675.1,31.1
2021-06-22T23:04:00Z,00040200,40000000,0001.84,0000.96,0000.39,0000.14,0000.03,0000.22,0000.51,0000.67,0000.53,18.7,25.3,03.5,02.3,0676.1,31.1
2021-06-22T23:05:00Z,00040200,00000000,0001.56,0000.81,0000.86,0000.15,0000.17,-000.00,0000.59,0000.61,0000.14,18.7,25.2,03.5,02.4,0676.2,31.1
2021-06-22T23:06:00Z,00040200,00000000,0001.77,0000.74,0000.67,0001.01,0000.25,0000.08,0000.75,-000.12,0000.49,18.7,25.2,03.5,02.4,0676.2,31.1
2021-06-22T23:07:00Z,00040200,00000000,0001.36,0000.94,0000.54,-000.19,0000.32,0000.13,0000.41,0000.82,0000.40,18.7,25.2,03.5,02.4,0676.2,31.1
2021-06-22T23:08:00Z,00040200,00000000,0001.81,0001.00,0000.58,0000.66,0000.10,0000.41,0000.18,-000.01,0000.03,18.7,25.1,03.5,02.4,0676.2,31.1
2021-06-22T23:09:00Z,00040200,00000000,0001.45,0001.14,0000.83,0000.57,0000.07,0000.17,0000.06,0000.26,0000.46,18.6,25.1,03.5,02.4,0676.2,31.1
2021-06-22T23:10:00Z,00040200,00000000,0001.63,0000.75,0000.12,0000.69,-000.09,0000.02,0000.73,0000.62,0000.41,18.6,25.1,03.5,02.4,0676.2,31.1
2021-06-22T23:11:00Z,00040200,00000000,0001.63,0000.77,0000.37,0000.79,-000.03,0000.34,0000.35,0000.09,0000.22,18.6,25.1,03.5,02.3,0676.2,31.1
2021-06-22T23:12:00Z,00040200,00000000,0001.58,0000.67,0000.52,0000.74,-000.03,0000.09,0000.18,0000.67,0000.51,18.6,25.1,03.5,02.4,0676.2,31.1
2021-06-22T23:13:00Z,00040200,00000000,0000.90,0001.11,0000.36,0000.04,0000.30,-000.04,0000.36,0000.36,-000.01,18.6,25.1,03.5,02.4,0676.2,31.1
2021-06-22T23:14:00Z,00040200,00000000,0001.91,0000.75,0000.45,0000.77,-000.01,-000.05,0000.13,0000.07,0000.25,18.6,25.1,03.5,02.3,0676.2,31.1
2021-06-22T23:15:00Z,00040200,00000000,0001.29,0000.53,0000.16,0000.59,-000.10,0000.01,0000.70,0000.58,0000.24,18.6,25.1,03.4,02.3,0676.2,31.1
2021-06-22T23:16:00Z,00040200,00000000,0001.40,0001.07,0000.32,0000.18,0000.19,-000.02,0000.09,0000.36,0000.13,18.5,25.0,03.3,02.2,0676.2,31.1
2021-06-22T23:17:00Z,00040200,00000000,0001.97,0001.00,0000.35,0000.25,0000.38,0000.04,0000.21,0000.13,0000.54,18.5,25.0,03.4,02.3,0676.2,31.1
2021-06-22T23:18:00Z,00040200,00000000,0001.05,0000.86,0000.69,0000.30,0000.27,0000.45,0000.31,0000.18,0000.18,18.5,25.0,03.3,02.2,0676.2,31.1
2021-06-22T23:19:00Z,00040200,00000000,0001.89,0000.96,0000.35,0000.30,0000.22,-000.06,0000.76,0000.76,0000.39,18.5,25.0,03.3,02.2,0676.3,31.1
2021-06-22T23:20:00Z,00040200,00000000,0001.33,0000.97,0000.22,0000.56,0000.11,0000.05,0000.34,-000.24,0000.16,18.5,25.0,03.3,02.2,0676.3,31.1
2021-06-22T23:21:00Z,00040200,00000000,0001.05,0000.74,0000.47,0000.14,0000.19,-000.09,0000.50,0000.75,0000.46,18.5,25.0,03.2,02.2,0676.3,31.1
2021-06-22T23:22:00Z,00040200,00000000,0001.67,0000.94,0000.50,0000.19,0000.00,0000.07,0000.51,0000.46,0000.27,18.4,25.0,03.3,02.2,0676.3,31.1
2021-06-22T23:23:00Z,00040200,00000000,0001.75,0000.80,0000.27,-000.12,0000.08,0000.22,0000.47,0000.36,0000.42,18.4,25.0,03.2,02.2,0676.3,31.1
2021-06-22T23:24:00Z,00040200,00000000,0001.21,0000.93,0000.58,0000.02,0000.01,0000.16,0000.33,0000.40,0000.31,18.4,25.0,03.3,02.2,0676.3,31.1
2021-06-22T23:25:00Z,00040200,00000000,0000.95,0001.02,0000.46,0000.24,0000.20,0000.18,0000.68,0000.79,0000.38,18.4,24.9,03.3,02.2,0676.3,31.1
2021-06-22T23:26:00Z,00040200,00000000,0001.65,0000.86,0000.57,-000.07,0000.06,-000.33,0000.27,0000.02,-000.03,18.4,24.9,03.2,02.2,0676.3,31.1
2021-06-22T23:27:00Z,00040200,00000000,0002.48,0000.82,0000.28,0000.42,0000.19,0000.17,0000.51,0000.92,0000.84,18.4,24.9,03.2,02.2,0676.3,31.1
2021-06-22T23:28:00Z,00040200,00000000,0001.33,0000.64,0000.46,-000.13,0000.01,0000.03,0000.99,0000.74,0000.51,18.4,24.9,03.2,02.2,0676.3,31.1
2021-06-22T23:29:00Z,00040200,00000000,0001.39,0000.77,0000.68,0000.85,0000.04,-000.04,0000.26,0000.35,0000.81,18.5,24.9,03.3,02.3,0676.4,31.1
2021-06-22T23:30:00Z,00040200,00000000,0001.36,0000.96,0000.33,0000.42,0000.06,0000.12,0001.12,0001.02,0000.74,18.6,25.0,03.3,02.2,0676.4,31.1
2021-06-22T23:31:00Z,00040200,00000000,0001.68,0000.87,0000.09,0000.43,0000.10,0000.08,0000.04,-000.20,-000.29,18.7,25.0,03.3,02.2,0676.4,31.1
2021-06-22T23:32:00Z,00040200,00000000,0002.02,0000.70,0000.26,0000.54,0000.16,-000.04,0000.85,0001.04,0000.62,18.8,25.1,03.4,02.3,0676.4,31.1
2021-06-22T23:33:00Z,00040200,00000000,0001.86,0000.84,0000.70,0000.49,0000.27,0000.27,0000.69,0000.31,-000.10,18.8,25.1,03.3,02.3,0676.4,31.1
2021-06-22T23:34:00Z,00040200,00000000,0001.68,0000.98,0000.62,0000.42,0000.29,-000.10,0000.17,0000.86,0000.64,18.8,25.2,03.4,02.3,0676.4,31.1
2021-06-22T23:35:00Z,00040200,00000000,0000.96,0000.69,0000.40,0000.34,0000.04,0000.20,0000.86,-000.01,0000.41,18.8,25.2,03.4,02.3,0676.4,31.1
2021-06-22T23:36:00Z,00040200,00000000,0001.24,0000.82,0000.55,0000.35,0000.20,0000.15,0000.63,0000.72,0000.93,18.8,25.1,03.4,02.3,0676.4,31.2
2021-06-22T23:37:00Z,00040200,00000000,0001.54,0000.70,0000.48,0000.02,0000.25,-000.25,0001.12,0001.05,0000.63,18.8,25.1,03.5,02.4,0676.4,31.1
2021-06-22T23:38:00Z,00040200,00000000,0001.35,0001.12,0000.29,0000.63,0000.21,-000.24,0000.88,0000.97,0000.47,18.7,25.1,03.6,02.4,0676.4,31.1
2021-06-22T23:39:00Z,00040200,00000000,0001.47,0000.91,0000.39,0000.61,0000.17,-000.14,-000.18,0000.06,0000.09,18.7,25.1,03.4,02.3,0676.4,31.1
2021-06-22T23:40:00Z,00040200,00000000,0001.49,0000.91,0000.42,0000.45,0000.26,-000.17,0000.53,0000.31,-000.16,18.7,25.1,03.6,02.4,0676.4,31.1
2021-06-22T23:41:00Z,00040200,00000000,0001.34,0000.87,0001.06,0000.23,0000.20,0000.09,0000.49,0000.34,0000.67,18.7,25.1,03.5,02.3,0676.5,31.1
2021-06-22T23:42:00Z,00040200,00000000,0002.34,0000.81,0000.64,0000.23,0000.20,-000.03,0000.69,0000.23,0000.45,18.6,25.1,03.4,02.3,0676.4,31.1
2021-06-22T23:43:00Z,00040200,00000000,0001.47,0000.98,0000.44,0000.67,-000.01,-000.05,0000.26,0000.43,0000.28,18.7,25.1,03.4,02.3,0676.5,31.1
2021-06-22T23:44:00Z,00040200,00000000,0001.75,0001.15,0000.49,0000.63,0000.05,-000.03,0000.73,0000.74,0000.58,18.7,25.1,03.4,02.3,0676.5,31.1
2021-06-22T23:45:00Z,00040200,00000000,0001.33,0000.86,0000.31,0000.10,0000.11,0000.25,0000.10,0000.69,0000.16,18.7,25.1,03.5,02.4,0676.5,31.1
2021-06-22T23:46:00Z,00040200,00000000,0001.31,0000.69,0000.39,0000.54,-000.05,0000.10,0000.91,0000.62,0000.51,18.7,25.1,03.6,02.4,0676.5,31.1
2021-06-22T23:47:00Z,00040200,00000000,0001.24,0000.76,0000.70,-000.04,0000.13,0000.10,0000.88,0000.23,0000.60,18.7,25.1,03.6,02.5,0676.5,31.1
2021-06-22T23:48:00Z,00040200,00000000,0001.78,0001.14,0000.45,-000.06,0000.19,0000.32,0000.88,0001.21,0000.48,18.7,25.1,03.7,02.5,0676.5,31.1
2021-06-22T23:49:00Z,00040200,00000000,0001.17,0000.83,0000.29,0000.17,0000.05,0000.03,0000.18,0000.33,0000.40,18.7,25.1,03.7,02.5,0676.5,31.1
2021-06-22T23:50:00Z,00040200,00000000,0001.80,0000.79,0000.47,0000.38,0000.06,-000.07,0000.72,0000.49,0000.83,18.7,25.1,03.7,02.5,0676.5,31.1
2021-06-22T23:51:00Z,00040200,00000000,0001.42,0000.83,0000.61,-000.16,0000.28,0000.06,0000.16,0000.34,-000.31,18.7,25.1,03.7,02.5,0676.5,31.1
2021-06-22T23:52:00Z,00040200,00000000,0001.02,0000.99,0000.64,0000.37,0000.28,0000.12,0000.41,0000.27,0000.36,18.7,25.1,03.7,02.5,0676.5,31.1
2021-06-22T23:53:00Z,00040200,00000000,0001.89,0001.20,0000.41,0000.28,-000.05,0000.05,0001.20,0000.68,0000.53,18.6,25.1,03.7,02.5,0676.5,31.1
2021-06-22T23:54:00Z,00040200,00000000,0001.75,0001.08,0000.71,0000.04,0000.28,0000.10,0000.77,0001.23,0000.94,18.6,25.1,03.8,02.6,0676.5,31.1
2021-06-22T23:55:00Z,00040200,00000000,0001.33,0000.78,0000.24,0000.45,-000.05,-000.11,0000.63,0000.13,0000.28,18.6,25.0,03.9,02.6,0676.5,31.1
2021-06-22T23:56:00Z,00040200,00000000,0001.19,0000.89,0000.36,-000.16,0000.05,0000.01,0000.47,0000.63,0000.19,18.5,25.0,03.9,02.6,0676.5,31.1
2021-06-22T23:57:00Z,00040200,40000000,,,,,,,0000.24,0000.16,0000.59,18.6,25.1,03.9,02.6,0676.5,31.1
2021-06-22T23:58:00Z,00040200,60000000,,,,,,,-000.03,0000.31,-000.08,18.3,25.2,03.8,02.5,0675.5,31.1
2021-06-22T23:59:00Z,00040200,20000000,,,,,,,0000.07,-000.27,0000.02,18.3,25.3,03.8,02.5,0675.5,31.1
